SUNNYSIDE Weather Reports


time (UTC)temp
C
wind
direction
speed
KPH
gust
KPH
rain 1hr
cm
rain 24hr
cm
rain mn
cm
humidity
%
barometer
mb
20260505102022 -2 319 14.5 25.7 0.00 0.00 0.00 54 981.1
20260505101518 -2 298 16.1 25.7 0.00 0.00 0.00 55 981.0
20260505101017 -2 319 11.3 22.5 0.00 0.00 0.00 56 981.1
20260505100517 -2 309 11.3 20.9 0.00 0.00 0.00 56 981.0
20260505100016 -2 317 9.7 20.9 0.00 0.00 0.00 56 980.9
20260505095517 -2 289 12.9 20.9 0.00 0.00 0.00 57 980.9
20260505095017 -2 323 8.0 20.9 0.00 0.00 0.00 57 980.8
20260505094515 -2 336 11.3 20.9 0.00 0.00 0.00 57 980.8
20260505094013 -2 311 12.9 20.9 0.00 0.00 0.00 56 980.8
20260505093513 -2 342 11.3 20.9 0.00 0.00 0.00 56 980.8
20260505093013 -2 295 12.9 25.7 0.00 0.00 0.00 56 980.7
20260505092511 -2 325 16.1 25.7 0.00 0.00 0.00 56 980.7
20260505092011 -1 288 12.9 20.9 0.00 0.00 0.00 56 980.6
20260505091510 -1 324 8.0 17.7 0.00 0.00 0.00 56 980.5
20260505091010 -1 287 8.0 16.1 0.00 0.00 0.00 56 980.5
20260505090509 -1 337 8.0 17.7 0.00 0.00 0.00 56 980.5
20260505090010 -1 341 11.3 19.3 0.00 0.00 0.00 56 980.5
20260505085509 -1 333 12.9 19.3 0.00 0.00 0.00 56 980.4
20260505085009 -1 329 9.7 17.7 0.00 0.00 0.00 56 980.3
20260505084509 -1 343 8.0 20.9 0.00 0.00 0.00 56 980.4
20260505084007 -1 351 12.9 20.9 0.00 0.00 0.00 56 980.2
20260505083509 -1 344 12.9 22.5 0.00 0.00 0.00 56 980.2
20260505083007 -1 333 14.5 22.5 0.00 0.00 0.00 56 980.3
20260505082510 -1 355 14.5 22.5 0.00 0.00 0.00 56 980.1
20260505082005 -1 346 12.9 29.0 0.00 0.00 0.00 56 980.1
20260505081505 -1 325 17.7 29.0 0.00 0.00 0.00 57 980.1
20260505081003 -1 320 16.1 25.7 0.00 0.00 0.00 57 980.0
20260505080506 -1 296 16.1 24.1 0.00 0.00 0.00 57 980.0
20260505080002 -1 340 14.5 30.6 0.00 0.00 0.00 57 979.9
20260505075503 -1 333 20.9 30.6 0.00 0.00 0.00 57 980.0
20260505075002 -1 326 17.7 27.4 0.00 0.00 0.00 57 980.0
20260505074502 -1 277 14.5 30.6 0.00 0.00 0.00 57 979.9
20260505074001 -1 314 20.9 32.2 0.00 0.00 0.00 56 979.9
20260505073503 -1 304 19.3 32.2 0.00 0.00 0.00 56 980.0
20260505073102 -1 341 17.7 29.0 0.00 0.00 0.00 56 980.1
20260505072559 -1 300 17.7 27.4 0.00 0.00 0.00 56 980.0
20260505072058 -1 318 19.3 27.4 0.00 0.00 0.00 55 979.9
20260505071558 -1 333 14.5 25.7 0.00 0.00 0.00 55 979.9
20260505071057 -1 334 19.3 27.4 0.00 0.00 0.00 54 980.0
20260505070556 0 315 16.1 27.4 0.00 0.00 0.00 54 979.9
20260505070105 0 309 17.7 29.0 0.00 0.00 0.00 54 979.9
20260505065555 0 310 16.1 29.0 0.00 0.00 0.00 54 980.0
20260505065054 0 300 14.5 29.0 0.00 0.00 0.00 54 980.0
20260505064639 0 333 16.1 25.7 0.00 0.00 0.00 54 979.9
20260505064055 0 334 17.7 25.7 0.00 0.00 0.00 55 980.0
20260505063555 0 344 19.3 25.7 0.00 0.00 0.00 55 979.9
20260505063056 0 309 16.1 27.4 0.00 0.00 0.00 55 979.9
20260505062554 0 344 17.7 27.4 0.00 0.00 0.00 55 979.9
20260505062053 0 340 20.9 27.4 0.00 0.00 0.00 54 979.9
20260505061553 0 302 17.7 30.6 0.00 0.00 0.00 55 979.8
20260505061052 0 327 17.7 30.6 0.00 0.00 0.00 55 979.8
20260505060553 0 297 16.1 29.0 0.00 0.00 0.00 55 979.8
20260505060051 0 337 17.7 29.0 0.00 0.03 0.00 55 979.7
20260505055550 0 318 17.7 29.0 0.00 0.03 0.00 55 979.7
20260505055050 0 309 17.7 29.0 0.00 0.03 0.00 54 979.6
20260505054551 0 338 17.7 35.4 0.00 0.03 0.00 53 979.6
20260505054049 0 319 20.9 35.4 0.00 0.03 0.00 52 979.4
20260505053547 0 337 20.9 33.8 0.00 0.03 0.00 52 979.4
20260505053047 0 315 17.7 35.4 0.00 0.03 0.00 52 979.5
20260505052546 0 311 20.9 35.4 0.00 0.03 0.00 52 979.4
20260505052045 0 309 20.9 30.6 0.00 0.03 0.00 52 979.4
20260505051545 0 301 17.7 27.4 0.00 0.03 0.00 53 979.4
20260505051043 0 286 14.5 24.1 0.00 0.03 0.00 53 979.4
20260505050542 0 313 17.7 32.2 0.00 0.03 0.00 53 979.3
20260505041537 0 313 19.3 32.2 0.00 0.03 0.03 53 979.2
20260505041036 0 319 16.1 32.2 0.00 0.03 0.03 52 979.1
20260505040538 0 305 19.3 38.6 0.00 0.03 0.03 52 979.2
20260505040036 0 309 22.5 38.6 0.00 0.03 0.03 51 979.1
20260505035534 0 306 17.7 32.2 0.00 0.03 0.03 51 979.1
20260505035033 0 336 20.9 38.6 0.00 0.03 0.03 50 979.1
20260505034539 0 332 24.1 38.6 0.00 0.03 0.03 51 979.0
20260505034033 1 327 14.5 29.0 0.00 0.03 0.03 52 979.1
20260505033536 1 336 14.5 25.7 0.00 0.03 0.03 52 979.0
20260505033032 1 331 16.1 24.1 0.00 0.03 0.03 52 978.9
20260505032531 0 320 11.3 24.1 0.00 0.03 0.03 52 978.9
20260505032032 0 303 11.3 19.3 0.00 0.03 0.03 52 978.8
20260505031531 0 335 9.7 16.1 0.00 0.03 0.03 52 978.8
20260505031030 0 344 8.0 16.1 0.00 0.03 0.03 52 978.7
20260505030531 0 312 6.4 14.5 0.00 0.03 0.03 51 978.7
20260505030043 0 316 9.7 14.5 0.00 0.03 0.03 51 978.7
20260505025531 0 338 6.4 12.9 0.00 0.03 0.03 51 978.6
20260505025030 0 340 8.0 12.9 0.00 0.03 0.03 51 978.7
20260505024529 0 312 6.4 16.1 0.00 0.03 0.03 51 978.7
20260505024028 0 334 8.0 16.1 0.00 0.03 0.03 51 978.6
20260505023528 0 326 8.0 12.9 0.00 0.03 0.03 51 978.6
20260505023032 0 340 6.4 17.7 0.00 0.03 0.03 51 978.6
20260505022529 0 315 6.4 17.7 0.00 0.03 0.03 50 978.5
20260505022026 0 344 8.0 14.5 0.00 0.03 0.03 50 978.4
20260505021527 0 355 8.0 16.1 0.00 0.03 0.03 50 978.4
20260505021026 0 311 8.0 16.1 0.00 0.03 0.03 50 978.4
20260505020525 0 346 8.0 14.5 0.00 0.03 0.03 50 978.3
20260505020025 0 336 8.0 16.1 0.00 0.03 0.03 51 978.3
20260505015524 0 340 6.4 16.1 0.00 0.03 0.03 51 978.3
20260505015024 0 11 6.4 17.7 0.00 0.03 0.03 50 978.2
20260505014527 0 332 8.0 19.3 0.00 0.03 0.03 50 978.2
20260505014023 0 360 11.3 19.3 0.00 0.03 0.03 49 978.1
20260505013527 0 318 9.7 19.3 0.00 0.03 0.03 49 978.1
20260505013022 0 360 11.3 25.7 0.00 0.03 0.03 49 978.1
20260505012522 0 348 11.3 25.7 0.00 0.03 0.03 48 978.0
20260505012021 1 343 12.9 24.1 0.00 0.03 0.03 48 978.0
20260505011520 1 322 14.5 25.7 0.00 0.03 0.03 47 978.0
20260505011017 1 12 14.5 25.7 0.00 0.03 0.03 47 977.9
20260505010517 1 360 12.9 29.0 0.00 0.03 0.03 46 978.0
20260505010016 1 341 16.1 29.0 0.00 0.03 0.03 46 978.0
20260505005517 1 337 12.9 27.4 0.00 0.03 0.03 46 978.0
20260505005016 1 340 14.5 30.6 0.00 0.03 0.03 46 977.9
20260505004529 1 11 17.7 30.6 0.00 0.03 0.03 46 977.9
20260505004015 2 351 19.3 33.8 0.00 0.03 0.03 45 977.8
20260505003514 2 331 20.9 33.8 0.00 0.03 0.03 44 977.7
20260505003014 2 355 17.7 32.2 0.00 0.03 0.03 45 977.7
20260505002514 2 336 17.7 35.4 0.00 0.03 0.03 45 977.7
20260505002014 2 345 20.9 37.0 0.00 0.03 0.03 45 977.8
20260505001515 2 312 25.7 37.0 0.00 0.03 0.03 43 977.8
20260505001013 2 337 19.3 35.4 0.00 0.03 0.03 44 977.8
20260505000518 2 355 19.3 33.8 0.00 0.03 0.03 44 977.7
20260505000114 2 355 17.7 35.4 0.00 0.03 0.03 46 977.7
20260504235512 2 341 20.9 40.2 0.00 0.03 0.03 46 977.5
20260504235012 2 340 19.3 40.2 0.00 0.03 0.03 46 977.4
20260504234513 2 334 22.5 37.0 0.00 0.03 0.03 46 977.5
20260504234011 2 342 20.9 38.6 0.00 0.03 0.03 46 977.4
20260504233511 2 333 22.5 40.2 0.00 0.03 0.03 46 977.4
20260504233011 2 332 25.7 40.2 0.00 0.03 0.03 46 977.5
20260504232510 2 340 20.9 38.6 0.00 0.03 0.03 46 977.4
20260504232011 2 355 19.3 38.6 0.00 0.03 0.03 47 977.4
20260504231510 2 344 27.4 38.6 0.00 0.03 0.03 46 977.3
20260504231010 2 349 25.7 37.0 0.00 0.03 0.03 46 977.2
20260504230510 2 346 24.1 37.0 0.00 0.03 0.03 47 977.1
20260504230008 2 329 19.3 38.6 0.00 0.03 0.03 46 977.0
20260504225507 3 329 22.5 35.4 0.00 0.03 0.03 45 977.0
20260504225007 3 355 22.5 35.4 0.00 0.03 0.03 45 977.0
20260504224506 3 324 19.3 33.8 0.00 0.03 0.03 45 977.0
20260504224006 3 17 20.9 35.4 0.00 0.03 0.03 45 977.0
20260504223507 3 317 20.9 35.4 0.00 0.03 0.03 44 976.9
20260504223005 3 350 24.1 37.0 0.00 0.03 0.03 43 976.8
20260504222504 3 333 22.5 37.0 0.00 0.03 0.03 41 976.8
20260504222007 3 351 20.9 33.8 0.00 0.03 0.03 43 976.7
20260504221505 3 348 20.9 33.8 0.00 0.03 0.03 43 976.6
20260504221003 3 338 16.1 33.8 0.00 0.03 0.03 43 976.5
20260504220503 3 306 17.7 33.8 0.00 0.03 0.03 42 976.6
20260504220003 3 340 20.9 40.2 0.00 0.03 0.03 43 976.5
20260504215503 3 342 24.1 40.2 0.00 0.03 0.03 43 976.5
20260504215006 3 355 24.1 35.4 0.00 0.03 0.03 43 976.4
20260504214502 3 330 22.5 40.2 0.00 0.03 0.03 43 976.4
20260504214004 3 329 22.5 38.6 0.00 0.03 0.03 44 976.3
20260504213502 3 349 22.5 38.6 0.00 0.03 0.03 45 976.2
20260504213004 3 333 24.1 35.4 0.00 0.03 0.03 44 976.3
20260504212502 3 329 25.7 40.2 0.00 0.03 0.03 44 976.2
20260504212001 3 346 24.1 40.2 0.00 0.03 0.03 47 976.1
20260504211600 3 348 24.1 38.6 0.00 0.03 0.03 46 976.0
20260504211100 3 300 25.7 38.6 0.00 0.03 0.03 45 976.1
20260504210600 3 336 24.1 41.8 0.00 0.03 0.03 46 976.2
20260504210100 3 313 22.5 37.0 0.00 0.03 0.03 46 976.1
20260504205604 3 331 25.7 43.5 0.00 0.03 0.03 47 976.0
20260504205103 3 336 22.5 43.5 0.00 0.03 0.03 48 976.1
20260504204559 3 335 24.1 41.8 0.00 0.03 0.03 48 976.1
20260504204100 3 318 24.1 41.8 0.00 0.03 0.03 49 976.2
20260504203601 2 312 27.4 41.8 0.00 0.03 0.03 47 976.3
20260504203058 3 317 25.7 45.1 0.00 0.03 0.03 47 976.1
20260504202558 2 323 30.6 45.1 0.00 0.03 0.03 48 976.0
20260504202058 2 346 24.1 46.7 0.00 0.03 0.03 49 976.0
20260504201601 2 344 29.0 46.7 0.00 0.03 0.03 48 975.9
20260504201056 2 342 29.0 46.7 0.00 0.03 0.03 48 975.9
20260504200556 2 5 25.7 41.8 0.00 0.03 0.03 48 975.7
20260504200055 3 330 25.7 43.5 0.00 0.03 0.03 47 975.7
20260504195555 3 285 27.4 45.1 0.00 0.03 0.03 48 975.7
20260504195057 3 355 29.0 45.1 0.00 0.03 0.03 49 975.6
20260504194602 3 332 29.0 41.8 0.00 0.03 0.03 48 975.5
20260504194054 3 330 27.4 41.8 0.00 0.03 0.03 49 975.3
20260504193554 3 5 27.4 41.8 0.00 0.03 0.03 49 975.4
20260504193053 3 309 29.0 41.8 0.00 0.03 0.03 50 975.4
20260504192551 3 347 25.7 45.1 0.00 0.03 0.03 48 975.3
20260504192051 3 306 27.4 49.9 0.00 0.03 0.03 50 975.1
20260504191610 3 338 29.0 45.1 0.00 0.03 0.03 49 975.0
20260504191050 3 292 29.0 43.5 0.00 0.03 0.03 49 974.9
20260504190548 3 340 27.4 46.7 0.00 0.03 0.03 49 974.8
20260504190049 3 292 30.6 46.7 0.00 0.03 0.03 51 974.6
20260504185548 3 323 30.6 43.5 0.00 0.03 0.03 50 974.6
20260504185047 3 337 24.1 41.8 0.00 0.03 0.03 51 974.4
20260504184555 3 355 27.4 43.5 0.00 0.03 0.03 50 974.4
20260504184047 3 336 29.0 43.5 0.00 0.03 0.03 52 974.4
20260504183547 3 360 27.4 40.2 0.00 0.03 0.03 51 974.4
20260504183046 3 341 29.0 43.5 0.00 0.03 0.03 51 974.4
20260504182548 3 323 30.6 45.1 0.00 0.03 0.03 50 974.4
20260504182046 3 334 29.0 41.8 0.00 0.03 0.03 50 974.3
20260504181546 4 360 25.7 41.8 0.00 0.03 0.03 49 974.4
20260504181044 4 351 29.0 38.6 0.00 0.03 0.03 48 974.1
20260504180547 4 286 27.4 45.1 0.00 0.03 0.03 49 974.1
20260504180045 3 300 25.7 43.5 0.00 0.03 0.03 50 974.0
20260504175545 3 343 29.0 45.1 0.00 0.03 0.03 49 974.1
20260504175144 3 312 30.6 45.1 0.00 0.03 0.03 49 973.9
20260504174543 3 330 24.1 41.8 0.00 0.03 0.03 48 973.9
20260504174043 2 296 22.5 43.5 0.00 0.03 0.03 49 973.9
20260504173544 2 284 27.4 43.5 0.00 0.03 0.03 49 973.9
20260504173043 2 313 25.7 43.5 0.00 0.03 0.03 51 973.9
20260504172541 2 311 29.0 43.5 0.00 0.03 0.03 51 973.8
20260504172044 2 315 22.5 41.8 0.00 0.03 0.03 51 973.5
20260504171542 2 319 24.1 37.0 0.00 0.03 0.03 55 973.7
20260504171039 2 325 22.5 40.2 0.00 0.03 0.03 59 973.7
20260504170540 1 321 25.7 46.7 0.00 0.03 0.03 55 973.6
20260504151019 4 348 32.2 46.7 0.00 0.03 0.03 43 972.2
20260504150524 4 297 30.6 45.1 0.00 0.03 0.03 42 972.2
20260504141013 3 267 20.9 38.6 0.00 0.03 0.03 50 972.0
20260504140508 3 263 24.1 43.5 0.00 0.03 0.03 49 971.8
20260504130501 2 323 27.4 38.6 0.00 0.03 0.03 52 971.2
20260504110543 2 301 22.5 45.1 0.00 0.03 0.03 53 969.4